APRIZESAT 3 (35686 NORAD) Tracking and Keplerian Element Data

This shows tracking and keplerian element data for the satellite.

Feedback or suggestion? Click here.




ElementValue
Catalog35686
NameAPRIZESAT 3
Epoch Orbit50876
Epoch Day352.04391452
Epoch Year2018
RAAN19.5372
Inclination98.2568
Eccentricity0.0073643
Argument of Perigee30.9953
Mean Anonmoly329.5576
Mean Motion14.87261516
Decay Rate6.6E-07
L11 35686U 09041F 18352.04391452 .00000066 00000-0 13861-4 0 9994
L22 35686 98.2568 19.5372 0073643 30.9953 329.5576 14.87261516508761

Live tracking and technical data element details for APRIZESAT 3 (NORAD 35686). APRIZESAT 3 can be tracked NOW for your location showing map with azimuth and elevation plus other details from your city location.

Track the satellite on the map from your city or location and see movement details for azimuth, elevation, latitude, longitude, range, height, and movement on the map or in text.







IsCatalogInMostPopularTable: catalog: 35686, numindb: 48
Update: records affected: 1



GetName: 35686 APRIZESAT 3

Hit Count: updated at: Wed, 19 Dec 2018 15:28:50 GMT